Regional Weather Roundup
Issued by NWS

Home | Current Version | Previous Version | Graphics & Text | Print | Product List | Glossary On
Versions: 1 2 3 4 5 6 7 8 9 10 11 12 13 14 15 16 17 18 19 20 21 22 23 24 25 26 27 28 29 30 31 32 33 34 35 36 37 38 39 40 41 42 43 44 45 46 47 48 49 50
624
ASUS43 KIND 200259
RWRIN

WEATHER ROUNDUP FOR INDIANA
NATIONAL WEATHER SERVICE INDIANAPOLIS IN
1100 PM EDT THU OCT 19 2017

NOTE: "FAIR" INDICATES FEW OR NO CLOUDS BELOW 12,000 FEET WITH NO
SIGNIFICANT WEATHER AND/OR OBSTRUCTIONS TO VISIBILITY.

* - STATION DOES NOT REPORT WEATHER SUCH AS PRECIPITATION OR FOG.

+ - STATION NOT QUALITY CONTROLLED BY THE NATIONAL WEATHER SERVICE.
    USE DATA WITH CAUTION...ESPECIALLY DEWPOINT AND RELATIVE
    HUMIDITY OBSERVATIONS.

INZ001>003-010>013-019-020-200400-
NORTHWEST INDIANA

CITY           SKY/WX    TMP DP  RH WIND       PRES   REMARKS
GARY /AIRPORT/ PTCLDY    46  45  93 SE5       30.17F
MONTICELLO +   CLOUDY    54  50  89 SE3       30.19S

$$

LMZ046-743>745-200400-
SOUTHERN LAKE MICHIGAN

STATION/POSITION TIME  TEMP    WIND        PRES    WAVE
                       AIR SEA DIR/SP/G            HT
                 (UTC) (F)     (DEG/KT/KT) (MB)    (FT)
BURNS HARBOR     0240   63     150/  6/  7 1022.0S
MICHIGAN CITY    0230   54     130/  7/  7   N/A
5NW MICH CITY    0250   58 58  150/  6/  6   N/A     1

$$

INZ004-005-014>016-021>024-200400-
NORTH CENTRAL INDIANA

CITY           SKY/WX    TMP DP  RH WIND       PRES   REMARKS
GOSHEN         CLEAR     47  37  68 CALM      30.20S
PERU/GRISSOM   CLOUDY    53  50  90 CALM      30.20R
SOUTH BEND     CLEAR     45  40  82 CALM      30.20S

$$

INZ006>009-017-018-025>027-200400-
NORTHEAST INDIANA

CITY           SKY/WX    TMP DP  RH WIND       PRES   REMARKS
FORT WAYNE     PTCLDY    51  44  77 CALM      30.21R
KENDALLVILLE + CLEAR     46  41  82 CALM      30.21S

$$

INZ028-029-035-036-043>045-051>053-200400-
WEST CENTRAL INDIANA

CITY           SKY/WX    TMP DP  RH WIND       PRES   REMARKS
LAFAYETTE      CLOUDY    55  53  93 CALM      30.19R
TERRE HAUTE    CLEAR     53  49  86 CALM      30.20S

$$

INZ030>032-037>040-046>048-054>057-064-065-200400-
CENTRAL INDIANA

CITY           SKY/WX    TMP DP  RH WIND       PRES   REMARKS
COLUMBUS       CLEAR     54  48  82 CALM      30.23R
INDIANAPOLIS   CLEAR     60  51  72 S3        30.22R
-EAGLE CREEK   CLEAR     56  51  84 CALM      30.21R
KOKOMO +       CLOUDY    52  49  89 CALM      30.21R
MT COMFORT *+  CLOUDY    54  52  94 CALM      30.22S
SHELBYVILLE    CLEAR     52  47  83 S3        30.22R

$$

INZ033-034-041-042-049-050-058-059-200400-
EAST CENTRAL INDIANA

CITY           SKY/WX    TMP DP  RH WIND       PRES   REMARKS
MUNCIE         CLEAR     52  48  86 CALM      30.21S
RICHMOND +     CLEAR     54  48  82 SW3       30.23S

$$

INZ060-061-067>069-081>083-085>088-200400-
SOUTHWEST INDIANA

CITY           SKY/WX    TMP DP  RH WIND       PRES   REMARKS
EVANSVILLE     CLEAR     57  51  80 CALM      30.22R
HUNTINGBURG +  CLEAR     59  52  77 S3        30.23R

$$

INZ062-063-066-070>080-084-089>092-200400-
SOUTH CENTRAL AND SOUTHEAST INDIANA

CITY           SKY/WX    TMP DP  RH WIND       PRES   REMARKS
BLOOMINGTON    CLEAR     53  48  83 CALM      30.22R
MADISON *+     CLEAR     54  50  87 CALM      30.25S
SEYMOUR +      CLEAR     52  48  87 CALM      30.23R

$$





USA.gov is the U.S. government's official web portal to all federal, state and local government web resources and services.